Content
SEND FEEDBACK

Daily
Averages
Monthly
Summary
United States of America

GERMANIA, MISSISSIPPI


Home > North America > United States > Mississippi
Elevation: 15 feet     Latitude: 32 37N     Longitude: 090 36W

WEATHER
 
SELECT A DAY
Number of Records: 197,106;   Date Range: 7/1/96 - 10/20/14
 
SHARE

PRINT THIS DATA

[ ← Previous Day ]
WEATHER ALMANAC - FEBRUARY 13, 2013
[ Next Day → ]
[ °C ]   °F
Weather ElementAverageHighLow
Temperature47.5 °F51.1 °F (12:53 pm)39.9 °F (11:53 pm)
Dewpoint40.9 °F46 °F (12:53 am)37 °F (4:53 pm)
Humidity78.3 %93 % (12:53 am)61 % (4:53 pm)
Barometer30.02 in30.12 in (10:53 pm)29.86 in (1:34 am)
Wind Speed7.6 mph15 mph (11:53 am)
Wind Gust21.9 mph (11:34 am)
Weather ElementAverage
Visibility10 mi
Wind DirectionSW (230 °)

Weather ElementTotal
Precipitation---
Heating Degree Days19.5 (Base 65)
Averaged from 31 records on February 13, 2013
WEATHER CONDITIONS BREAKOUT
WIND DIRECTION BREAKOUT
WEATHER BY HOUR - FEBRUARY 13, 2013
[ °C ]   °F
Local TimeTemperatureDewpointHumidityBarometerVisibilityWind DirectionWind SpeedGust SpeedPrecipitationEventsConditions
12:53 AM48.0 °F46.0 °F93 %29.88 in10.0 miWSW (250°)6.9 mphOvercast
1:34 AM48.2 °F44.6 °F87 %29.86 in10.0 miWSW (240°)6.9 mphScattered Clouds
1:43 AM48.2 °F44.6 °F87 %29.86 in10.0 miWSW (240°)6.9 mphMostly Cloudy
1:53 AM48.0 °F45.0 °F89 %29.90 in10.0 miWSW (240°)12.7 mph17.3 mphMostly Cloudy
2:39 AM48.2 °F44.6 °F87 %29.89 in10.0 miWest (260°)8.1 mphOvercast
2:53 AM48.0 °F45.0 °F89 %29.93 in10.0 miWest (260°)8.1 mphOvercast
3:53 AM48.0 °F45.0 °F89 %29.95 in10.0 miWest (280°)13.8 mph20.7 mph0.00 inRainLight Rain
4:53 AM48.0 °F43.0 °F83 %29.96 in10.0 miWest (280°)6.9 mph0.00 inOvercast
5:53 AM46.9 °F43.0 °F86 %29.97 in10.0 miWNW (300°)10.4 mph0.00 inOvercast
6:53 AM46.9 °F42.1 °F83 %29.99 in10.0 miWNW (300°)9.2 mphOvercast
7:53 AM46.9 °F42.1 °F83 %30.01 in10.0 miWNW (300°)9.2 mphOvercast
8:53 AM46.9 °F41.0 °F80 %30.06 in10.0 miNW (310°)10.4 mphOvercast
9:53 AM48.0 °F41.0 °F77 %30.07 in10.0 miNW (310°)9.2 mph16.1 mphOvercast
10:00 AM48.2 °F41.0 °F76 %30.05 in10.0 miNW (310°)8.1 mphOvercast
10:39 AM48.2 °F39.2 °F71 %30.05 in10.0 miWNW (300°)12.7 mphOvercast
10:53 AM48.0 °F39.9 °F74 %30.07 in10.0 miNW (320°)10.4 mph19.6 mphOvercast
11:04 AM48.2 °F39.2 °F71 %30.05 in10.0 miNW (320°)13.8 mph19.6 mphOvercast
11:34 AM48.2 °F39.2 °F71 %30.05 in10.0 miNW (320°)10.4 mph21.9 mphOvercast
11:53 AM50.0 °F37.9 °F63 %30.07 in10.0 miNNW (330°)15.0 mph20.7 mphOvercast
12:53 PM51.1 °F39.0 °F63 %30.05 in10.0 miNNW (340°)13.8 mph20.7 mphMostly Cloudy
1:53 PM50.0 °F39.0 °F66 %30.04 in10.0 miNNW (330°)11.5 mphOvercast
2:53 PM50.0 °F37.9 °F63 %30.04 in10.0 miNNW (330°)9.2 mph17.3 mphOvercast
3:53 PM50.0 °F37.9 °F63 %30.05 in10.0 miNW (320°)9.2 mphOvercast
4:53 PM50.0 °F37.0 °F61 %30.06 in10.0 miNNW (340°)3.5 mphOvercast
5:53 PM50.0 °F37.9 °F63 %30.07 in10.0 miCalmOvercast
6:53 PM48.9 °F39.0 °F69 %30.08 in10.0 miCalmOvercast
7:53 PM45.0 °F39.9 °F82 %30.09 in10.0 miCalmMostly Cloudy
8:53 PM44.1 °F39.9 °F85 %30.10 in10.0 miCalmMostly Cloudy
9:53 PM43.0 °F39.0 °F86 %30.11 in10.0 miCalmClear
10:53 PM41.0 °F39.0 °F93 %30.12 in10.0 miCalmClear
11:53 PM39.9 °F37.9 °F93 %30.12 in10.0 miCalmClear
Hourly data recorded from KTVR, located miles away from Germania, Mississippi







STORIES FROM OUR PARTNERS